星链-2367 (STARLINK-2367 )

导读

STARLINK-2367是美国SpaceX星链(Starlink)星座中的一颗卫星,于2021年3月14日发射。星链是全球最大低轨卫星互联网星座,目标为全球偏远、网络基础设施薄弱地区提供高速低延迟宽带服务。作为组网星,STARLINK-2367承担了星座节点功能,助力SpaceX逐步实现全球覆盖目标,持续推动全球互联布局,截至2026年SpaceX已累计发射近万颗星链卫星。

基本信息
目录编号:
47907
目录名称:
STARLINK-2367
国际标识:
2021-021AZ
轨道中心:
EARTH
卫星名称:
星链-2367
卫星全名:
星链-2367 (STARLINK-2367 )
卫星状态:
在轨 (已飞行1922 天)
发射日期:
2021-03-14 UTC
国别 :
美国 (US)
星等 :
--
轨道信息
数据来源 国际轨道数据
星历时间: 2026-06-17T15:35:07+0800
1天前
查看轨道信息
半长轴: 6848.845km
偏心率: 0.0001173
轨道倾角: 53.161°
近地点辐角 91.421°
升交点赤经 177.646°
平近点角 268.692°
近地点: 469.904km
远地点: 471.512km
周期: 94.013分钟
每日圈数: 15.317109
详细信息
固有亮度:
5
最大亮度:
2.5
卫星平台:
Starlink V1.0
覆盖范围:
全球
运营商:
太空探索技术公司
运营商所在国:
美国
制造商(研发单位):
太空探索技术公司
制造商所在国:
美国
使用方式:
暂无
卫星简介
星链(Starlink)计划是由太空探索技术公司(SpaceX)提出的一个巨型低轨卫星互联网星座项目,计划在2019年至2024年间在太空搭建由约1.2万颗卫星组成的“星链”网络,其中1584颗将部署在地球上空550千米处的近地轨道,并从2020年开始工作。该卫星仍在工作。
2D轨道图
3D轨道图
轨道高度分析图
轨道倾角分析图
轨道综合分析图
查看轨道综合分析图